[[{"header":{"parameterUnit":"m.s-1","parameterCategory":1,"la1":30.2991,"la2":30.254,"lo1":-89.0895,"lo2":-89.0444,"dy":0.0017,"dx":0.0017,"nx":28,"ny":28,"refTime":"2025-12-20T03:00:00:Z","depth":0,"parameterNumber":2,"parameterNumberName":"U-component_of_WINDS"},"data":[0,0,0,0,0,0,0,0,0,0,0,0,0,0,0,0,0,0,0,0,0,0,0,0,0,0,0,0,0,0,0,0,0,0,0,0,0,0,0,0,0,0,0,0,0,0,0,0,0,0,0,0,0,0,0,0,0,0,-0.8787,-0.8786,0,-0.8652,-0.865,-0.8649,-0.8566,-0.8566,-0.8565,-0.8565,-0.8423,-0.842,-0.8417,0,0,0,0,0,0,0,0,0,0,0,0,0,-0.897,-0.8967,-0.8787,-0.8785,-0.8784,-0.8652,-0.865,-0.8648,-0.8566,-0.8566,-0.8565,-0.8565,-0.8424,-0.842,-0.8416,0,0,0,0,0,0,0,0,0,0,0,0,0,-0.8868,-0.8966,-0.8787,-0.8727,-0.872,-0.8652,-0.865,-0.8648,-0.8566,-0.8566,-0.8565,-0.8565,-0.8426,-0.8421,-0.8416,-0.8396,0,0,-0.84,-0.8398,0,0,0,0,0,0,0,0,-0.8874,-0.8861,-0.8738,-0.8731,-0.8723,-0.8625,-0.8662,-0.8563,-0.8567,-0.8625,-0.8565,-0.8564,-0.8491,-0.848,-0.8456,-0.8389,-0.8383,-0.84,-0.8397,-0.8394,-0.8393,0,0,0,0,0,0,0,-0.8881,-0.8867,-0.8733,-0.8736,-0.8727,-0.8705,-0.869,-0.8643,-0.8563,-0.862,-0.8613,-0.8599,-0.8487,-0.8461,-0.8452,-0.8381,-0.84,-0.8395,-0.8392,-0.839,-0.8288,-0.8288,0,0,0,0,0,0,-0.8898,-0.8873,-0.8738,-0.8729,-0.8799,-0.8702,-0.8685,-0.8657,-0.8563,-0.8548,-0.8599,-0.8595,-0.847,-0.8458,-0.8447,-0.8415,-0.8394,-0.839,-0.8387,-0.8288,-0.8288,-0.8289,0,0,0,0,0,0,-0.8902,-0.8887,-0.8743,-0.8799,-0.8779,-0.87,-0.8669,-0.8655,-0.8629,-0.8548,-0.8532,-0.8588,-0.8469,-0.8454,-0.8409,-0.8409,-0.8387,-0.8383,-0.8287,-0.8288,-0.8288,-0.8354,0,0,0,0,0,0,-0.8908,-0.8889,-0.8882,-0.88,-0.8777,-0.8709,-0.8669,-0.8653,-0.8621,-0.8615,-0.8533,-0.8519,-0.8468,-0.8417,-0.8404,-0.8402,-0.8379,-0.8287,-0.8288,-0.8288,-0.8352,-0.8357,-0.8362,0,0,0,0,0,-0.8915,-0.8906,-0.8882,-0.8866,-0.8767,-0.8709,-0.8696,-0.8638,-0.8622,-0.8613,-0.856,-0.8522,-0.8412,-0.8413,-0.8397,-0.8394,-0.8287,-0.8287,-0.8288,-0.8349,-0.8356,-0.8361,0,0,0,0,0,0,-0.8989,-0.8894,-0.8867,-0.8831,-0.8779,-0.8696,-0.8683,-0.8647,-0.8597,-0.8593,-0.8522,-0.8504,-0.8466,-0.8425,-0.8428,-0.8369,-0.8345,-0.8342,-0.8396,-0.8402,-0.8407,-0.8417,-0.8374,0,0,0,0,0,-0.9002,-0.8965,-0.8883,-0.8859,-0.8835,-0.8764,-0.8737,-0.8696,-0.8639,-0.8616,-0.856,-0.8505,-0.8457,-0.8427,-0.8379,-0.8345,-0.8325,-0.8335,-0.834,-0.8345,-0.8343,-0.832,-0.8323,-0.8291,-0.8291,-0.8291,0,0,-0.9027,-0.897,-0.8951,-0.8873,-0.8828,-0.8789,-0.8746,-0.8707,-0.8677,-0.861,-0.8563,-0.852,-0.8453,-0.8413,-0.8393,-0.8378,-0.8347,-0.8346,-0.835,-0.8346,-0.8321,-0.8324,-0.8327,-0.8292,-0.8292,-0.8292,0,0,-0.9053,-0.9007,-0.8981,-0.8937,-0.8869,-0.8822,-0.8816,-0.8737,-0.8706,-0.8658,-0.8606,-0.8569,-0.8489,-0.8443,-0.8409,-0.8415,-0.8377,-0.8402,-0.8427,-0.8405,-0.8407,-0.8409,-0.8409,-0.8411,-0.8401,-0.8401,-0.8401,0,-0.9092,-0.9033,-0.8973,-0.8937,-0.8902,-0.884,-0.8812,-0.8772,-0.8692,-0.8669,-0.8654,-0.8551,-0.8502,-0.8449,-0.845,-0.8426,-0.8415,-0.841,-0.8412,-0.8413,-0.8414,-0.8413,-0.8414,-0.8404,-0.8404,-0.8403,-0.8403,0,-0.9084,-0.9044,-0.9031,-0.8956,-0.892,-0.8889,-0.8821,-0.8792,-0.8754,-0.8707,-0.8658,-0.8597,-0.8534,-0.8519,-0.8482,-0.8459,-0.8452,-0.8426,-0.84,-0.8422,-0.842,-0.8419,-0.8409,-0.8408,-0.8407,-0.8406,0,0,-0.9154,-0.9044,-0.9041,-0.9005,-0.8924,-0.8891,-0.8855,-0.8795,-0.877,-0.8716,-0.8683,-0.8616,-0.8591,-0.8552,-0.8509,-0.849,-0.8496,-0.8465,-0.8462,-0.8472,-0.8465,-0.8485,-0.8485,-0.847,-0.847,-0.847,-0.847,0,-0.9167,-0.9101,-0.9045,-0.8999,-0.896,-0.8899,-0.8867,-0.8813,-0.8768,-0.8727,-0.8676,-0.8629,-0.86,-0.8576,-0.8554,-0.85,-0.8493,-0.8499,-0.8437,-0.8435,-0.8455,-0.8485,-0.8506,-0.8509,-0.8469,-0.8469,-0.8469,0,-0.9174,-0.9123,-0.9074,-0.8995,-0.8976,-0.895,-0.8888,-0.885,-0.8786,-0.8755,-0.8711,-0.8665,-0.8622,-0.8601,-0.854,-0.8545,-0.8516,-0.8485,-0.8483,-0.8474,-0.8453,-0.8475,-0.8509,-0.8509,-0.8467,-0.8467,-0.8467,0,-0.9228,-0.9147,-0.9106,-0.9077,-0.8986,-0.8967,-0.8928,-0.8864,-0.8831,-0.8776,-0.8753,-0.8695,-0.8662,-0.8617,-0.8555,-0.8546,-0.8499,-0.8474,-0.847,-0.8471,-0.8462,-0.8464,-0.8491,-0.8446,-0.8446,-0.8446,-0.8446,0,-0.9247,-0.9219,-0.9129,-0.9104,-0.907,-0.9003,-0.8971,-0.8926,-0.8869,-0.8832,-0.8776,-0.8742,-0.8664,-0.862,-0.8572,-0.8527,-0.8513,-0.8484,-0.8472,-0.8489,-0.8493,-0.8468,-0.8466,-0.8446,-0.8446,-0.8446,-0.8446,0,-0.9302,-0.9241,-0.9192,-0.9109,-0.9087,-0.9065,-0.8993,-0.8965,-0.8916,-0.8871,-0.8856,-0.8779,-0.8724,-0.8659,-0.8583,-0.855,-0.8509,-0.8491,-0.8531,-0.8523,-0.8523,-0.8523,-0.8534,-0.8531,-0.849,-0.8491,-0.8491,0,-0.9319,-0.9296,-0.921,-0.9182,-0.9144,-0.91,-0.9065,-0.8998,-0.8964,-0.8889,-0.8869,-0.8811,-0.876,-0.8675,-0.8611,-0.8552,-0.8531,-0.8539,-0.8522,-0.8539,-0.8529,-0.8531,-0.8527,-0.8544,-0.8544,-0.8545,-0.8546,0,-0.9354,-0.9324,-0.9277,-0.9219,-0.918,-0.913,-0.9078,-0.9058,-0.898,-0.8944,-0.8888,-0.8848,-0.877,-0.8712,-0.8644,-0.8601,-0.856,-0.8551,-0.8547,-0.8564,-0.8588,-0.8573,-0.8542,-0.8551,-0.8551,-0.855,-0.855,-0.855,-0.9389,-0.9365,-0.93,-0.9249,-0.9203,-0.9155,-0.9124,-0.9071,-0.9024,-0.8956,-0.8918,-0.8863,-0.8797,-0.8702,-0.866,-0.8614,-0.8599,-0.8594,-0.8592,-0.8591,-0.8596,-0.8596,-0.8601,-0.8601,-0.8601,-0.8601,-0.8601,0,-0.942,-0.9375,-0.9329,-0.9258,-0.9217,-0.9182,-0.9122,-0.9089,-0.9042,-0.8984,-0.8936,-0.887,-0.8812,-0.8743,-0.868,-0.8656,-0.8635,-0.8642,-0.8643,-0.8633,-0.8613,-0.8622,-0.866,-0.866,-0.866,-0.866,-0.866,-0.866,-0.9431,-0.9388,-0.935,-0.9282,-0.9237,-0.9183,-0.9151,-0.9106,-0.9059,-0.8989,-0.8941,-0.8897,-0.8833,-0.8765,-0.871,-0.8691,-0.867,-0.8682,-0.8657,-0.864,-0.8635,-0.863,-0.8638,-0.8678,-0.8678,-0.868,-0.868,-0.868]},{"header":{"parameterUnit":"m.s-1","parameterCategory":1,"la1":30.2991,"la2":30.254,"lo1":-89.0895,"lo2":-89.0444,"dy":0.0017,"dx":0.0017,"nx":28,"ny":28,"refTime":"2025-12-20T03:00:00:Z","depth":0,"parameterNumber":3,"parameterNumberName":"V-component_of_WINDS"},"data":[0,0,0,0,0,0,0,0,0,0,0,0,0,0,0,0,0,0,0,0,0,0,0,0,0,0,0,0,0,0,0,0,0,0,0,0,0,0,0,0,0,0,0,0,0,0,0,0,0,0,0,0,0,0,0,0,0,0,0.7445,0.7446,0,0.7516,0.7516,0.7517,0.7577,0.7577,0.7578,0.7579,0.7648,0.7649,0.765,0,0,0,0,0,0,0,0,0,0,0,0,0,0.7358,0.7359,0.7445,0.7446,0.7447,0.7515,0.7516,0.7517,0.7577,0.7577,0.7578,0.7579,0.7647,0.7649,0.765,0,0,0,0,0,0,0,0,0,0,0,0,0,0.7409,0.7359,0.7445,0.7484,0.7489,0.7515,0.7516,0.7518,0.7576,0.7577,0.7578,0.7579,0.7647,0.7649,0.765,0.7642,0,0,0.7656,0.7657,0,0,0,0,0,0,0,0,0.7406,0.7412,0.7478,0.7482,0.7487,0.7538,0.7511,0.7559,0.7576,0.7543,0.7579,0.758,0.761,0.7615,0.7626,0.7645,0.7648,0.7656,0.7657,0.7658,0.7659,0,0,0,0,0,0,0,0.7402,0.7409,0.7473,0.7479,0.7484,0.7498,0.7506,0.752,0.757,0.7546,0.755,0.7558,0.7613,0.7624,0.7628,0.7649,0.7656,0.7658,0.7659,0.766,0.7664,0.7663,0,0,0,0,0,0,0.7393,0.7406,0.747,0.7475,0.7448,0.7499,0.7508,0.7521,0.757,0.7579,0.7557,0.7561,0.7621,0.7626,0.7631,0.7623,0.7658,0.766,0.7661,0.7665,0.7664,0.7663,0,0,0,0,0,0,0.7391,0.7398,0.7468,0.7442,0.7451,0.7499,0.7513,0.7522,0.7533,0.7579,0.7588,0.756,0.7622,0.7628,0.7639,0.7627,0.7661,0.7662,0.7666,0.7664,0.7663,0.7609,0,0,0,0,0,0,0.7388,0.7397,0.7395,0.7441,0.7453,0.7475,0.7512,0.7522,0.7536,0.7542,0.7584,0.7591,0.7623,0.7636,0.7641,0.763,0.7664,0.7667,0.7665,0.7664,0.7612,0.7605,0.76,0,0,0,0,0,0.7385,0.7376,0.7395,0.7402,0.7451,0.7474,0.7481,0.7518,0.7535,0.7533,0.7562,0.759,0.7628,0.7636,0.7642,0.7632,0.7668,0.7666,0.7664,0.7614,0.7607,0.76,0,0,0,0,0,0,0.7326,0.7383,0.7404,0.7411,0.7437,0.7484,0.7483,0.7509,0.7531,0.7534,0.7579,0.7588,0.7593,0.7614,0.7623,0.7626,0.7651,0.765,0.7612,0.7605,0.7599,0.7593,0.7665,0,0,0,0,0,0.7315,0.733,0.7378,0.7379,0.7391,0.7435,0.7446,0.7473,0.7502,0.7513,0.7543,0.7569,0.7587,0.7597,0.7616,0.7616,0.7625,0.7611,0.7605,0.7601,0.7598,0.7598,0.7592,0.7655,0.7655,0.7655,0,0,0.729,0.7322,0.7329,0.7368,0.7392,0.7405,0.7444,0.7456,0.7466,0.7515,0.7526,0.7549,0.7581,0.7586,0.7589,0.7603,0.7583,0.7598,0.7593,0.7594,0.7595,0.7589,0.7584,0.7654,0.7654,0.7654,0,0,0.7251,0.7278,0.7281,0.7305,0.7341,0.737,0.737,0.7414,0.7431,0.7444,0.748,0.7492,0.7522,0.7543,0.7557,0.7527,0.7552,0.7531,0.75,0.75,0.7495,0.7491,0.7478,0.7473,0.753,0.7529,0.7529,0,0.7215,0.7238,0.7279,0.729,0.7305,0.7351,0.7354,0.7374,0.7414,0.7423,0.7439,0.7476,0.7501,0.7511,0.7503,0.7514,0.7515,0.7526,0.7492,0.7489,0.7485,0.7474,0.7469,0.7527,0.7527,0.7527,0.7528,0,0.7191,0.7206,0.7204,0.7242,0.7258,0.7264,0.7306,0.7317,0.7342,0.7368,0.738,0.7412,0.7437,0.7442,0.7467,0.7455,0.7462,0.7484,0.7511,0.7476,0.7465,0.7461,0.7522,0.7524,0.7524,0.7525,0,0,0.7116,0.7178,0.7177,0.7194,0.7237,0.7249,0.7257,0.7283,0.7291,0.7317,0.7323,0.7348,0.7369,0.7385,0.7412,0.7412,0.7384,0.7435,0.7436,0.7422,0.7371,0.7352,0.7346,0.7402,0.7401,0.7401,0.7367,0,0.7083,0.7102,0.714,0.7145,0.7159,0.7202,0.7209,0.7236,0.7261,0.7275,0.7303,0.7319,0.7346,0.7356,0.7358,0.7387,0.7373,0.739,0.7407,0.7407,0.7395,0.7341,0.7322,0.7289,0.7364,0.7363,0.7363,0,0.7047,0.7071,0.7078,0.712,0.7127,0.7133,0.7159,0.7173,0.7204,0.7222,0.724,0.7271,0.728,0.7306,0.7319,0.7329,0.7338,0.7353,0.7353,0.7354,0.7381,0.7339,0.728,0.7274,0.7357,0.7358,0.7358,0,0.699,0.7024,0.7033,0.7047,0.7096,0.7099,0.7119,0.7151,0.7164,0.7187,0.7195,0.7219,0.7231,0.7248,0.7283,0.7298,0.7291,0.732,0.7305,0.7304,0.73,0.7299,0.7238,0.7309,0.7309,0.7309,0.7309,0,0.6948,0.695,0.7008,0.7012,0.7016,0.7059,0.7061,0.7085,0.7113,0.7123,0.7162,0.717,0.7217,0.723,0.7258,0.7263,0.7269,0.7282,0.7289,0.7278,0.7276,0.7283,0.7285,0.7308,0.7308,0.7308,0.7308,0,0.6884,0.6923,0.6935,0.6981,0.6992,0.6993,0.7031,0.7037,0.7065,0.7077,0.7082,0.7125,0.7142,0.718,0.7207,0.7225,0.7223,0.7237,0.7213,0.7217,0.7199,0.7199,0.7139,0.7133,0.7208,0.7208,0.7207,0,0.6854,0.6857,0.6903,0.6913,0.6932,0.6947,0.6961,0.7003,0.7016,0.7051,0.7052,0.7072,0.7091,0.7116,0.7149,0.7169,0.7183,0.716,0.7186,0.7174,0.718,0.7178,0.7178,0.7154,0.7153,0.7152,0.7151,0,0.6796,0.6815,0.6834,0.6859,0.6874,0.6895,0.6919,0.6924,0.6972,0.6984,0.7002,0.7017,0.7045,0.7064,0.7089,0.7109,0.7137,0.7143,0.714,0.7128,0.7113,0.7118,0.7195,0.7144,0.7145,0.7145,0.7145,0.7146,0.6747,0.6751,0.6784,0.6803,0.6826,0.6847,0.6854,0.6883,0.69,0.6926,0.695,0.6966,0.6996,0.7033,0.7051,0.7063,0.7077,0.7074,0.7072,0.707,0.7064,0.7112,0.7068,0.7068,0.7069,0.7069,0.7069,0,0.6689,0.6713,0.673,0.6762,0.6777,0.6804,0.6831,0.6841,0.6855,0.6881,0.6898,0.6919,0.6937,0.6972,0.6993,0.6996,0.7009,0.7,0.6999,0.7003,0.7052,0.7051,0.6989,0.6989,0.6989,0.6989,0.6989,0.6989,0.6661,0.6669,0.6691,0.671,0.6734,0.675,0.6763,0.6782,0.6803,0.6824,0.684,0.6863,0.6892,0.6916,0.6934,0.6943,0.6948,0.6934,0.6948,0.6992,0.7,0.7007,0.7006,0.6936,0.6936,0.6898,0.6897,0.6897]}]]